AirNav   ProFlight Series 2 Aviation Headset
 
 1011 users online  

8PN6 Lansdale Hospital Heliport
Lansdale, Pennsylvania, USA

GOING TO LANSDALE?


FAA INFORMATION EFFECTIVE 18 JUNE 2020

Location

FAA Identifier: 8PN6
Lat/Long: 40-15-08.6000N 075-16-13.2000W
40-15.143333N 075-16.220000W
40.2523889,-75.2703333
(estimated)
Elevation: 330 ft. / 101 m (estimated)
From city: 1 mile NE of LANSDALE, PA
Time zone: UTC -4 (UTC -5 during Standard Time)
Zip code: 18915

Heliport Operations

Heliport use: Private use, MEDICAL.
Activation date: 02/2007
Control tower: no
ARTCC: NEW YORK CENTER
FSS: WILLIAMSPORT FLIGHT SERVICE STATION
Attendance: UNATNDD
Wind indicator: yes
Segmented circle: no

Heliport Communications

WX AWOS-3 at LOM (7 nm S): 118.925 (215-646-1068)
WX AWOS-3 at CKZ (8 nm N): 126.325 (215-257-7291)
WX ASOS at DYL (8 nm NE): 118.875 (215-345-0392)
WX AWOS-3 at UKT (12 nm NW): 119.475 (215-538-7610)
WX ASOS at PTW (13 nm W): 119.425 (610-495-0823)
WX ASOS at PNE (16 nm SE): 121.15 (215-677-0146)

Nearby radio navigation aids

VOR radial/distance  VOR name  Freq  Var
PTWr091/13.4POTTSTOWN VORTAC116.5009W
ARDr280/16.6YARDLEY VOR/DME108.2010W
MXEr052/27.2MODENA VORTAC113.2009W
ETXr145/27.3EAST TEXAS VOR/DME110.2009W
FJCr174/29.7ALLENTOWN VORTAC117.5010W
SBJr241/31.2SOLBERG VOR/DME112.9010W
GXUr307/34.2MC GUIRE VORTAC110.6012W
RBVr285/35.6ROBBINSVILLE VORTAC113.8010W
OODr012/37.0WOODSTOWN VORTAC112.8010W
DQOr034/37.8DUPONT VORTAC114.0010W
BWZr223/38.6BROADWAY VOR/DME114.2011W

 
NDB name  Hdg/Dist  Freq  Var  ID
AMBLER017/7.627512WING .. -. --.

Heliport Services

Runway Information

Helipad H1

Dimensions: 80 x 80 ft. / 24 x 24 m
Surface: asphalt
Latitude: 40-15.143333N
Longitude: 075-16.220000W
Elevation: 330.0 ft.
Traffic pattern: leftleft

Heliport Ownership and Management from official FAA records

Ownership: Privately-owned
Owner: ABINGTON HEALTH LANSDALE HOSPITAL
100 MEDICAL CAMPUS DRIVE
LANSDALE, PA 19446
Phone 215-368-2100
Manager: JACK PEARO
100 MEDICAL CAMPUS DRIVE
LANSDALE, PA 19446
Phone 215-361-4456
267-683-8832 KENT HARRINGTON

Heliport Operational Statistics

Aircraft based on the field: 1
Helicopters: 1
    

Additional Remarks

A52-H1 120 FT TWR 460 FT W OF HELIPAD.
FOR CD CTC PHILADELPHIA APCH AT 800-354-9884.
APP HDG 360 DEG, DEP HDG 180 DEG.

Instrument Procedures

There are no published instrument procedures at 8PN6.

Some nearby airports with instrument procedures:

KLOM - Wings Field Airport (7 nm S)
N10 - Perkiomen Valley Airport (8 nm W)
KCKZ - Pennridge Airport (8 nm N)
KDYL - Doylestown Airport (8 nm NE)
KUKT - Quakertown Airport (12 nm NW)
KPTW - Heritage Field Airport (13 nm W)
KPNE - Northeast Philadelphia Airport (16 nm SE)
N47 - Pottstown Municipal Airport (18 nm W)
 
Loc | Ops | Rwys | IFR | FBO | Links
Com | Nav | Svcs | Stats | Notes
Area around 8PN6 (Lansdale Hospital Heliport)
 
Road maps at: MapQuest Bing Google
 
Aerial photo
No photo
 
Sectional chart

 
Airport distance calculator
Flying to Lansdale Hospital Heliport? Find the distance to fly.

From to 8PN6

Sunrise and sunset
Times for 02-Jul-2020
 Local
(UTC-4)
 Zulu
(UTC)
Morning civil twilight05:0409:04
Sunrise05:3709:37
Sunset20:3300:33
Evening civil twilight21:0601:06

Current date and time
Zulu (UTC)  02-Jul-2020 23:36:20
Local (UTC-4)  02-Jul-2020 19:36:20
 
METAR
KLOM 
7nm S 
022315Z AUTO 31004KT 10SM SCT110 31/17 A2982 RMK AO2 T03120172
KCKZ 
8nm N 
022315Z AUTO 32005KT 10SM FEW120 31/17 A2984 RMK AO2
KDYL 
9nm NE 
022254Z AUTO 35005KT 10SM FEW080 SCT110 33/16 A2980 RMK AO2 SLP085 T03330161
KUKT 
12nm NW 
022320Z AUTO 30003KT 10SM CLR 31/18 A2984 RMK A01
KPTW 
13nm W 
022254Z AUTO 32008KT 8SM CLR 31/17 A2984 RMK AO2 SLP098 T03060167
KPNE 
15nm SE 
022254Z AUTO 34008KT 10SM BKN120 34/16 A2980 RMK AO2 SLP089 T03390156
TAF
KPNE 
15nm SE 
022042Z 0221/0318 34012KT P6SM VCSH FEW060 FM030000 30005KT P6SM SCT200 FM031500 32006KT P6SM BKN100
NOTAMs
Click for the latest NOTAMs
NOTAMs are issued by the DoD/FAA and will open in a separate window not controlled by AirNav.

 

 
 

Would you like to see your business listed on this page?

 If your business provides an interesting product or service to pilots, flight crews, aircraft, or users of the Lansdale Hospital Heliport, you should consider listing it here.  To start the listing process, click on the button below
 
Add a business
 

Other Pages about Lansdale Hospital Heliport

Update a link
 
Copyright © AirNav, LLC. All rights reserved. Privacy Policy  Contact